NOAA 16 DEB, 41097

Orbit data source: Space-Track

NOAA 16 DEB, 41097 is space debris in SSO originally from a launch on Thu, 21 Sep 2000 UTC launched from the Air Force Western Test Range (AFWTR). Debris objects in space refer to the collection of defunct objects orbiting the Earth. Examples of debris include non-operational satellites, rocket bodies, and fragments generated from explosions, collisions, or faulty payload assembly.

Loading next visibility...
Identifier
41097, 2000-055BG
Orbit
SSO
Country
Flag of USUS
Related business
Manufacturer
Unknown
Mission
Spacecraft
Bus & Motor
Unknown
Mass
Unknown
Launch date (UTC)
2000-09-21 (26 years ago)
Launch vehicle
Unknown
Launch site
Air Force Western Test Range (AFWTR)
Object type
Payload
Rocket body
Debris
Shape & HBR
Unknown shape, 0.1 m
Radar Cross Section
Medium (>0.1 m² and <1 m²)

Expand to show TLE details & history
Last TLE update: 2 days ago

TLE from 2 days ago
0 NOAA 16 DEB
1 41097U 00055BG  26171.11998944  .00001640  00000-0  10750-2 0  9999
2 41097  98.9050 131.5457 0090623 152.5192 208.0808 14.01445767536442
Epoch: 2026-06-20T02:52Z
TLE epoch observation values (Epoch: 2026-06-20T02:52:47.087Z)
Latitude
-0.00002°
Longitude
-179.98967°
Altitude
949.921 km
Speed
7.347 km/s
True Right ascension
08h 46m 10s
True Declination
0° 00' 00"
Sunlit
Object was in daylight at epoch
Visualization orbit readout
Latitude
Unknown
Longitude
Unknown
Altitude
Unknown
Speed
Unknown
Apparent Right ascension
Unknown
Apparent Declination
Unknown
Sunlit
N/A
Visualization observer readout
Local Sidereal Time
03:29:08
Azimuth
Unknown
Elevation
Unknown
Doppler factor
Unknown
Orbital elements
Apogee altitude
951.815 km
Perigee altitude
820.156 km
Semi-major axis
7,264.122 km
Eccentricity
0.00906
Inclination
98.905°
RAAN
131.5457°
Arg. of periapsis
152.5192°
True anomaly
207.59682°
Mean anomaly
208.0808°
Eccentric anomaly
207.83833°
Mean motion
3.50565 °/min
Orbital period
102.69 mins
BSTAR
0.001075
Loading maneuver chart data...
Computing Atmospheric mass density...
Loading historical data...
Loading historical data...
Loading historical data...
Loading historical data...
Loading historical data...
Loading historical data...
Loading historical data...

Documentation

Showing up to 5 results
|